Location: Dunedin
(45.8670°S, 170.5000°E)
Time: 12:11:35
(UTC+12:00)

Daily predictions for brighter satellites

Satellite Brightness Start Highest point End
(mag) Time Altitude Azimuth Time Altitude Azimuth Time Altitude Azimuth
Cosmos 1354 Rocket 4.0 17:37:32 10° SSW 17:42:53 70° ESE 17:48:08 10° NNE
USA 234 4.2 17:38:20 10° ESE 17:44:10 32° NE 17:49:56 10° N
Cosmos 1633 4.5 17:44:54 10° ENE 17:46:24 12° E 17:47:56 10° ESE
SL-16 R/B 4.0 17:44:28 10° ENE 17:46:39 12° E 17:48:50 10° ESE
Cosmos 1606 4.0 17:44:03 10° SSE 17:47:02 21° ESE 17:49:59 10° ENE
Atlas Centaur 2 4.5 17:47:12 10° NNW 17:49:45 14° N 17:52:34 10° NNE
Cosmos 2322 4.3 17:44:07 10° NW 17:49:47 61° WSW 17:55:33 10° SSE
In-Cosmos 22 Rocket 4.2 17:46:03 10° NNW 17:51:24 84° W 17:56:50 10° S
CZ-4B R/B 1.7 17:49:01 10° NE 17:51:55 38° ESE 17:54:54 10° S
Cosmos 1992 Rocket 4.4 17:47:29 10° NNW 17:52:45 71° WSW 17:58:04 10° SSE
Meteor PRIRODA 4.2 17:50:53 10° SSE 17:54:30 40° E 17:58:02 10° N
IRIDIUM 114 4.4 17:52:06 10° S 17:57:21 57° E 18:02:32 10° NNE
Cosmos 1437 Rocket 3.5 17:54:14 10° S 17:57:40 30° ESE 18:01:04 10° NE
Cosmos 1242 Rocket 4.1 18:00:19 10° SSE 18:02:53 17° ESE 18:05:26 10° ENE
ERS-2 3.8 18:01:21 10° E 18:03:31 15° ESE 18:05:42 10° SSE
Genesis I 3.2 18:00:34 10° NNW 18:04:31 77° NE 18:08:27 10° SE
Cosmos 1356 3.5 18:01:24 10° N 18:04:45 56° E 18:08:12 10° SSE
deb Chang Zheng 4 4.3 18:00:48 10° SSE 18:04:48 33° E 18:08:46 10° NNE
Meteor 2-15 4.4 17:59:03 10° S 18:05:13 68° E 18:11:16 10° NNE
IRIDIUM 103 4.3 18:01:11 10° S 18:06:30 69° E 18:11:44 10° N
Envisat 3.0 18:01:39 10° SSE 18:06:48 66° ENE 18:11:53 10° N
ATLAS 3B R/B 2.9 18:00:14 10° NNW 18:07:44 74° ENE 18:15:05 10° SE
Cosmos 2333 Rocket 3.2 18:02:30 10° NW 18:07:58 47° WSW 18:13:29 10° SSE
Cosmos 2058 2.9 18:04:59 10° N 18:09:08 75° E 18:13:22 10° SSE
SKYMED 2 4.5 18:07:46 10° N 18:12:03 55° W 18:16:25 10° SSW
H-2A R/B 2.8 18:08:08 10° S 18:12:04 85° WSW 18:15:53 10° NNW
SJ 16-02 2.3 18:08:19 10° S 18:12:11 28° ESE 18:16:01 10° ENE
SMAP 4.1 18:09:11 10° SE 18:13:10 26° E 18:17:05 10° NNE
Cosmos 2237 Rocket 2.3 18:08:41 10° N 18:14:14 59° ENE 18:19:53 10° SSE
Cosmos 1943 Rocket 3.3 18:13:43 10° S 18:18:17 24° SE 18:21:52 14° E
Cosmos 1553 Rocket 4.2 18:15:01 10° S 18:20:56 46° ESE 18:26:46 10° NNE
ADEOS 4.3 18:17:25 10° S 18:22:36 55° WSW 18:27:43 10° NW
Cosmos 1867 4.2 18:17:45 10° SSW 18:22:42 34° SE 18:26:56 13° ENE
Cosmos 1689 Rocket 2.9 18:22:10 10° NE 18:24:40 27° ESE 18:27:13 10° S
IRIDIUM 106 4.5 18:19:31 10° S 18:24:51 83° W 18:30:07 10° N
SL-8 R/B 3.7 18:20:48 10° WNW 18:25:42 82° NNE 18:29:12 19° ESE
CSL-04 DEB 4.3 18:23:24 10° NNE 18:27:22 89° ESE 18:31:26 10° SSW
Cosmos 192 4.5 18:24:06 10° NNW 18:29:02 78° WSW 18:34:02 10° SSE
NOSS 0 Rocket 4.0 18:22:48 10° NNW 18:29:03 87° WSW 18:35:22 10° SSE
Okean O Rocket 2.9 18:34:14 21° E 18:34:34 21° E 18:37:59 10° NE
PSLV R/B 4.0 18:32:10 10° SSE 18:35:53 46° E 18:39:29 10° N
Lacrosse 5 1.8 18:32:31 10° SW 18:37:42 76° SE 18:42:25 12° NE
Cosmos 2278 Rocket 2.7 18:32:10 10° SSW 18:37:51 63° WNW 18:43:27 10° N
Cosmos 2369 Rocket 3.4 18:36:59 10° S 18:41:08 20° SE 18:41:48 20° SE
Cosmos 1777 Rocket 4.2 18:36:28 10° SSW 18:41:49 78° WNW 18:47:04 10° NNE
Cosmos 1933 3.8 18:40:56 10° S 18:44:52 38° ESE 18:48:44 10° NE
Cosmos 2219 Rocket 3.9 18:42:34 10° WNW 18:47:27 29° SW 18:52:22 10° S
CZ-4B R/B 3.7 18:44:38 16° SE 18:48:19 34° E 18:53:07 10° NNE
Cosmos 1825 4.2 18:47:13 10° NW 18:50:35 29° WSW 18:54:00 10° SSW
CZ-2C R/B 3.2 18:46:55 10° N 18:52:33 67° WNW 18:58:10 10° SSW
COSMOS 2428 4.3 18:49:31 10° WNW 18:54:35 32° SW 18:59:42 10° S
NOAA 11 4.1 18:50:11 10° SSE 18:55:44 74° ENE 19:01:13 10° N
Cosmos 990 Rocket 4.5 18:51:12 10° S 18:56:03 37° ESE 18:57:40 30° E
Cosmos 1898 Rocket 4.1 18:55:32 10° S 19:00:18 34° ESE 19:00:48 33° ESE
Meteor 2-3 Rocket 3.8 18:57:43 10° N 19:03:12 55° E 19:08:49 10° SSE
Cosmos 1655 Rocket 4.1 18:57:53 10° NNE 19:04:04 57° E 19:10:22 10° SSE
PAYLOAD B 4.2 18:58:41 10° SSE 19:04:20 66° ENE 19:09:52 10° N
Cosmos 1461 3.7 19:00:18 10° SW 19:04:34 56° WNW 19:08:59 10° NNE
ATLAS CENTAUR R/B 1.2 19:14:07 10° SSW 19:18:26 69° SE 19:18:33 68° ESE
Cosmos 1939 Rocket 2.8 19:17:52 40° SSE 19:19:19 79° ENE 19:23:30 10° N
Cosmos 1633 3.6 19:17:13 10° NNW 19:20:42 46° WSW 19:23:34 15° S
BREEZE-M DEB (TANK) 4.2 19:20:29 10° WSW 19:21:22 18° SW 19:21:22 18° SW
Cosmos 883 Rocket 4.4 19:18:20 10° S 19:24:32 62° ESE 19:30:45 10° NNE
CENTAUR R/B 4.4 19:19:58 10° WSW 19:25:01 20° SSW 19:28:40 13° SSE
CZ-2C R/B 2.7 19:25:08 42° SSE 19:26:43 72° ENE 19:31:29 10° N
Meteor 2-21 4.5 19:21:09 10° N 19:27:24 84° W 19:33:43 10° S
USA 234 3.3 19:24:15 33° SE 19:27:36 83° SW 19:34:11 10° WNW
AQUARIUS 4.4 19:24:25 12° S 19:28:34 68° WSW 19:33:03 10° NNW
Radarsat Rocket 3.9 19:23:26 10° SSE 19:29:38 89° WSW 19:35:29 10° NNW
SL-16 R/B 2.1 19:24:07 10° NNW 19:29:48 82° ENE 19:32:00 39° SSE
Cosmos 2151 3.7 19:26:15 10° NNW 19:30:24 52° WSW 19:34:18 12° S
ERS-2 3.1 19:33:05 10° N 19:36:39 47° W 19:40:17 10° SSW
FengYun 1-2 T 4.5 19:32:04 10° S 19:37:39 69° WSW 19:43:07 10° NNW
Cosmos 1242 Rocket 4.2 19:34:24 10° SSW 19:37:51 35° W 19:41:15 10° NNW
Cosmos 2266 Rocket 3.9 19:36:22 10° N 19:42:27 88° W 19:48:43 10° S
Cosmos 2297 3.8 19:37:19 10° SSW 19:43:08 75° WNW 19:46:43 24° NNE
SMAP 4.4 19:46:13 10° S 19:50:35 38° WSW 19:54:56 10° NW
SJ 16-02 3.0 19:46:46 10° SW 19:50:46 33° W 19:54:45 10° NNW
Cosmos 1937 Rocket 4.4 19:49:16 10° SSW 19:52:35 38° S 19:52:35 38° S
H-2A R/B 4.5 19:58:12 19° NNW 19:58:12 19° NNW 19:59:24 10° NNW
Cosmos 2237 Rocket 4.0 19:53:53 10° WNW 19:58:42 27° SW 20:02:48 13° S
ATLAS 3B R/B 4.0 19:52:17 10° W 19:59:05 36° SW 20:03:08 21° SSE
Cosmos 1943 Rocket 2.4 19:56:53 10° SSW 20:02:35 69° WNW 20:03:29 59° NNW
Cosmos 1607 4.3 19:59:07 10° SW 20:05:09 59° WNW 20:07:09 41° N
Cosmos 1867 4.4 20:01:16 10° SW 20:06:27 47° WNW 20:07:40 40° NNW
Cosmos 1763 Rocket 3.9 20:04:08 10° NNW 20:08:35 60° WNW 20:08:35 60° WNW
Cosmos 2315 Rocket 4.1 20:03:51 10° SSW 20:10:13 75° W 20:16:33 10° N
Okean O Rocket 2.8 20:11:42 41° W 20:11:42 41° W 20:15:23 10° NW
Lacrosse 5 3.9 20:16:14 10° WSW 20:20:13 23° WNW 20:21:42 20° NNW
Cosmos 2369 Rocket 3.2 20:20:12 10° SSW 20:23:38 38° SSW 20:23:38 38° SSW
CZ-4B R/B 4.5 20:26:32 25° SSW 20:28:53 36° WSW 20:33:42 10° NW
NOSS 3-1 (C) 4.4 20:35:39 10° NNW 20:42:38 59° NNW 20:42:38 59° NNW
USA 234 4.5 21:11:37 36° SW 21:11:37 36° SW 21:16:13 10° W
SL-16 R/B 4.4 21:10:24 10° W 21:13:55 20° SW 21:13:55 20° SW
